Location: Hradec Kralove
(50.2170°N, 15.8330°E)
Time: 12:42:15
(UTC+02:00)

Explorer 7 - Pass Details

Date: 01 February 2023
Orbit: 478 x 657 km, 50.3° (Epoch: 26 March)

Event Time Altitude Azimuth Distance (km) Brightness Sun altitude
Rises 12:21:19 0° 213° (SSW) 2,680 11.3 22.6°
Reaches altitude 10° 12:23:44 10° 200° (SSW) 1,825 11.1 22.6°
Maximum altitude 12:27:13 26° 143° (SE) 1,142 9.4 22.6°
Drops below altitude 10° 12:30:54 10° 87° (E) 1,932 9.6 22.5°
Sets 12:33:31 0° 75° (ENE) 2,873 10.3 22.5°
